QPF
0.12 0.12 0.17 0.21 0.19 0.15 0.15 0.16 0.10 0.08 0.07 0.09 0.05 0.08 0.06 0.05 0.06 0.06 0.07 0.07 0.05 0.03 0.03 0.04 0.03 0.01 0.01 0.00 0.00 0.00 0.00 0.00 0.00 0.01 0.01 0.01 0.01 0.01 0.01 0.01 0.00 0.01 0.01 0.01 0.01 0.01 0.01 0.01 0.01
0.08 0.18 0.23 0.26 0.15 0.15 0.17 0.15 0.10 0.05 0.05 0.07 0.05 0.07 0.05 0.03 0.03 0.03 0.08 0.07 0.02 0.02 0.02 0.01 0.02 0.01 0.01 0.01 0.01 0.00 0.00 0.00 0.00 0.00 0.00 0.01 0.01 0.01 0.01 0.01 0.01 0.01 0.01 0.02 0.02 0.02 0.02 0.02 0.01
0.10 0.23 0.26 0.25 0.19 0.21 0.23 0.14 0.07 0.03 0.04 0.05 0.04 0.06 0.04 0.03 0.02 0.02 0.05 0.03 0.02 0.01 0.01 0.02 0.03 0.02 0.01 0.00 0.00 0.00 0.01 0.01 0.01 0.00 0.00 0.00 0.00 0.01 0.01 0.01 0.01 0.01 0.01 0.01 0.01 0.02 0.03 0.03 0.02
0.15 0.25 0.27 0.21 0.20 0.25 0.19 0.11 0.06 0.06 0.04 0.02 0.03 0.04 0.04 0.03 0.01 0.01 0.01 0.01 0.02 0.01 0.01 0.01 0.02 0.01 0.02 0.01 0.00 0.01 0.01 0.01 0.01 0.00 0.00 0.00 0.00 0.00 0.01 0.01 0.01 0.02 0.02 0.03 0.04 0.04 0.04 0.04 0.04
0.25 0.27 0.21 0.16 0.18 0.21 0.13 0.09 0.07 0.04 0.02 0.01 0.01 0.03 0.05 0.04 0.01 0.01 0.02 0.01 0.01 0.01 0.00 0.00 0.01 0.01 0.01 0.01 0.01 0.01 0.00 0.01 0.01 0.00 0.00 0.00 0.00 0.00 0.01 0.01 0.02 0.02 0.03 0.04 0.05 0.05 0.06 0.05 0.04
0.24 0.22 0.16 0.15 0.20 0.22 0.14 0.10 0.07 0.04 0.02 0.01 0.01 0.03 0.07 0.05 0.02 0.02 0.01 0.01 0.01 0.00 0.00 0.00 0.01 0.01 0.01 0.01 0.01 0.00 0.00 0.00 0.01 0.00 0.00 0.00 0.00 0.01 0.01 0.02 0.02 0.03 0.05 0.05 0.05 0.04 0.05 0.05 0.04
0.25 0.19 0.12 0.15 0.20 0.21 0.14 0.14 0.09 0.03 0.02 0.01 0.01 0.03 0.05 0.06 0.02 0.01 0.01 0.01 0.01 0.01 0.00 0.00 0.00 0.01 0.01 0.01 0.00 0.00 0.00 0.00 0.00 0.00 0.00 0.00 0.00 0.00 0.00 0.01 0.02 0.03 0.05 0.06 0.05 0.04 0.05 0.06 0.05
0.25 0.20 0.11 0.13 0.17 0.18 0.11 0.08 0.04 0.02 0.01 0.01 0.01 0.03 0.04 0.04 0.02 0.01 0.01 0.01 0.01 0.01 0.00 0.00 0.00 0.00 0.00 0.00 0.00 0.00 0.00 0.00 0.00 0.00 0.00 0.00 0.00 0.00 0.01 0.01 0.03 0.04 0.05 0.05 0.05 0.04 0.05 0.05 0.05
0.27 0.20 0.11 0.10 0.17 0.18 0.13 0.05 0.02 0.01 0.01 0.01 0.01 0.01 0.02 0.02 0.02 0.01 0.01 0.02 0.01 0.01 0.00 0.00 0.01 0.01 0.01 0.00 0.00 0.00 0.00 0.00 0.00 0.00 0.01 0.00 0.00 0.00 0.01 0.02 0.04 0.05 0.06 0.06 0.06 0.05 0.06 0.06 0.06
0.22 0.13 0.09 0.10 0.15 0.17 0.12 0.05 0.03 0.02 0.02 0.01 0.01 0.01 0.01 0.02 0.01 0.01 0.02 0.02 0.01 0.01 0.01 0.01 0.01 0.01 0.01 0.00 0.00 0.00 0.00 0.00 0.00 0.00 0.00 0.00 0.00 0.00 0.01 0.01 0.02 0.04 0.04 0.05 0.06 0.08 0.08 0.07 0.03
0.17 0.09 0.06 0.11 0.12 0.12 0.13 0.06 0.02 0.02 0.02 0.01 0.02 0.02 0.02 0.02 0.02 0.02 0.01 0.01 0.00 0.01 0.01 0.02 0.02 0.01 0.00 0.00 0.00 0.00 0.00 0.00 0.00 0.00 0.00 0.00 0.00 0.00 0.00 0.00 0.01 0.02 0.03 0.04 0.05 0.06 0.04 0.02 0.02
0.20 0.13 0.10 0.16 0.19 0.14 0.10 0.06 0.03 0.03 0.02 0.01 0.02 0.02 0.02 0.03 0.02 0.01 0.01 0.00 0.00 0.00 0.01 0.01 0.02 0.01 0.00 0.00 0.00 0.00 0.00 0.00 0.00 0.00 0.00 0.00 0.00 0.00 0.00 0.00 0.00 0.01 0.02 0.03 0.03 0.03 0.03 0.02 0.02
0.20 0.16 0.15 0.13 0.14 0.13 0.09 0.06 0.05 0.04 0.03 0.01 0.01 0.01 0.01 0.01 0.01 0.01 0.01 0.00 0.00 0.00 0.00 0.00 0.01 0.00 0.00 0.00 0.00 0.00 0.00 0.00 0.00 0.00 0.00 0.00 0.00 0.00 0.00 0.00 0.00 0.01 0.01 0.02 0.02 0.02 0.03 0.03 0.04
0.21 0.17 0.17 0.15 0.10 0.07 0.07 0.05 0.04 0.04 0.03 0.02 0.02 0.02 0.02 0.02 0.02 0.01 0.00 0.00 0.00 0.00 0.00 0.00 0.00 0.00 0.00 0.00 0.00 0.00 0.00 0.00 0.00 0.00 0.00 0.00 0.00 0.00 0.00 0.00 0.00 0.01 0.01 0.01 0.01 0.02 0.02 0.02 0.04
0.20 0.20 0.18 0.15 0.11 0.06 0.04 0.05 0.07 0.05 0.03 0.02 0.03 0.04 0.05 0.03 0.02 0.02 0.00 0.00 0.00 0.00 0.01 0.01 0.00 0.00 0.00 0.00 0.00 0.00 0.00 0.00 0.00 0.00 0.00 0.00 0.00 0.00 0.00 0.00 0.00 0.01 0.01 0.01 0.01 0.02 0.03 0.02 0.03
0.24 0.25 0.21 0.15 0.16 0.11 0.06 0.06 0.06 0.05 0.04 0.04 0.04 0.03 0.03 0.03 0.03 0.02 0.01 0.00 0.00 0.00 0.01 0.00 0.01 0.01 0.01 0.01 0.01 0.01 0.01 0.00 0.01 0.00 0.00 0.00 0.00 0.00 0.00 0.00 0.01 0.01 0.01 0.01 0.01 0.01 0.02 0.02 0.03
0.24 0.21 0.16 0.15 0.14 0.11 0.07 0.04 0.03 0.03 0.02 0.03 0.03 0.03 0.03 0.02 0.02 0.02 0.01 0.01 0.01 0.01 0.01 0.01 0.01 0.01 0.02 0.02 0.02 0.02 0.01 0.01 0.01 0.00 0.00 0.00 0.00 0.00 0.00 0.00 0.00 0.00 0.01 0.00 0.01 0.01 0.01 0.01 0.03
0.16 0.13 0.10 0.10 0.13 0.09 0.06 0.05 0.04 0.03 0.02 0.03 0.03 0.03 0.02 0.01 0.01 0.01 0.01 0.01 0.01 0.01 0.01 0.01 0.01 0.02 0.02 0.03 0.03 0.02 0.01 0.01 0.00 0.00 0.00 0.00 0.00 0.00 0.00 0.01 0.00 0.00 0.01 0.01 0.01 0.01 0.01 0.01 0.03
0.10 0.09 0.09 0.09 0.10 0.09 0.07 0.05 0.02 0.02 0.02 0.02 0.02 0.02 0.03 0.01 0.01 0.01 0.01 0.01 0.01 0.01 0.01 0.01 0.01 0.01 0.01 0.01 0.01 0.01 0.00 0.00 0.00 0.00 0.00 0.00 0.00 0.00 0.00 0.01 0.01 0.01 0.00 0.01 0.02 0.03 0.02 0.01 0.02
0.13 0.11 0.08 0.09 0.08 0.11 0.07 0.05 0.02 0.01 0.01 0.01 0.01 0.02 0.04 0.03 0.01 0.01 0.00 0.00 0.00 0.00 0.00 0.00 0.00 0.00 0.00 0.00 0.00 0.00 0.00 0.00 0.00 0.00 0.00 0.00 0.00 0.00 0.00 0.00 0.00 0.00 0.00 0.01 0.01 0.02 0.02 0.01 0.01
0.10 0.11 0.09 0.10 0.13 0.10 0.08 0.05 0.03 0.01 0.01 0.02 0.01 0.02 0.02 0.02 0.01 0.01 0.01 0.00 0.00 0.00 0.00 0.00 0.00 0.00 0.00 0.00 0.00 0.00 0.00 0.00 0.00 0.00 0.00 0.00 0.00 0.00 0.00 0.00 0.00 0.00 0.00 0.00 0.01 0.01 0.01 0.02 0.02
0.07 0.06 0.07 0.05 0.07 0.06 0.05 0.05 0.03 0.02 0.02 0.01 0.01 0.01 0.02 0.01 0.01 0.01 0.01 0.00 0.00 0.00 0.00 0.00 0.00 0.00 0.00 0.00 0.00 0.00 0.00 0.00 0.00 0.00 0.00 0.00 0.00 0.00 0.00 0.00 0.00 0.00 0.00 0.00 0.00 0.01 0.01 0.01 0.02
0.04 0.02 0.02 0.02 0.02 0.02 0.02 0.02 0.02 0.02 0.01 0.02 0.01 0.00 0.00 0.00 0.00 0.00 0.00 0.00 0.00 0.00 0.00 0.00 0.00 0.00 0.00 0.00 0.00 0.00 0.00 0.00 0.00 0.00 0.00 0.00 0.00 0.00 0.01 0.01 0.01 0.01 0.01 0.00 0.00 0.01 0.01 0.01 0.01
0.02 0.01 0.01 0.01 0.01 0.01 0.00 0.00 0.00 0.01 0.01 0.01 0.01 0.00 0.00 0.00 0.01 0.01 0.00 0.00 0.00 0.00 0.00 0.00 0.00 0.00 0.00 0.00 0.00 0.00 0.00 0.00 0.00 0.00 0.00 0.00 0.00 0.00 0.00 0.00 0.00 0.00 0.00 0.00 0.01 0.01 0.02 0.02 0.02
0.01 0.01 0.01 0.01 0.02 0.02 0.01 0.00 0.00 0.00 0.00 0.00 0.00 0.00 0.00 0.00 0.00 0.00 0.00 0.00 0.00 0.00 0.00 0.00 0.00 0.00 0.00 0.00 0.00 0.00 0.00 0.00 0.00 0.00 0.00 0.00 0.00 0.00 0.00 0.01 0.00 0.00 0.00 0.01 0.01 0.01 0.01 0.02 0.01
0.01 0.01 0.01 0.03 0.02 0.02 0.01 0.01 0.00 0.00 0.00 0.00 0.00 0.00 0.00 0.00 0.00 0.00 0.00 0.00 0.00 0.00 0.00 0.00 0.00 0.00 0.00 0.00 0.00 0.00 0.00 0.00 0.00 0.00 0.00 0.00 0.00 0.00 0.00 0.01 0.01 0.00 0.00 0.01 0.01 0.01 0.01 0.01 0.01
0.01 0.01 0.01 0.01 0.01 0.01 0.00 0.00 0.00 0.00 0.00 0.00 0.00 0.00 0.00 0.00 0.00 0.00 0.00 0.00 0.00 0.00 0.00 0.00 0.00 0.00 0.00 0.00 0.00 0.00 0.00 0.00 0.00 0.00 0.00 0.00 0.00 0.00 0.00 0.01 0.01 0.01 0.01 0.01 0.02 0.03 0.02 0.02 0.02
0.00 0.01 0.01 0.00 0.01 0.01 0.01 0.00 0.00 0.00 0.00 0.00 0.00 0.00 0.00 0.00 0.00 0.00 0.00 0.00 0.00 0.00 0.00 0.00 0.00 0.00 0.00 0.00 0.00 0.00 0.00 0.00 0.00 0.00 0.00 0.00 0.00 0.00 0.00 0.00 0.00 0.02 0.02 0.01 0.01 0.02 0.02 0.01 0.01
0.00 0.00 0.00 0.01 0.01 0.02 0.00 0.00 0.00 0.00 0.00 0.00 0.00 0.00 0.00 0.00 0.00 0.00 0.00 0.00 0.00 0.00 0.00 0.00 0.00 0.00 0.00 0.00 0.00 0.00 0.00 0.00 0.00 0.00 0.00 0.00 0.01 0.01 0.00 0.01 0.01 0.01 0.01 0.01 0.01 0.01 0.01 0.01 0.01
0.00 0.00 0.00 0.01 0.01 0.01 0.01 0.00 0.00 0.00 0.00 0.00 0.00 0.00 0.00 0.00 0.00 0.00 0.00 0.00 0.00 0.00 0.00 0.00 0.00 0.00 0.00 0.00 0.00 0.00 0.00 0.00 0.00 0.00 0.00 0.00 0.00 0.00 0.00 0.01 0.02 0.01 0.00 0.00 0.00 0.01 0.01 0.01 0.01
MSLP
1009.85 1010.73 1011.81 1012.92 1013.87 1014.54 1014.84 1014.77 1014.42 1013.92 1013.43 1013.06 1012.90 1012.96 1013.18 1013.47 1013.71 1013.80 1013.71 1013.43 1013.00 1012.51 1012.04 1011.67 1011.44 1011.34 1011.36 1011.43 1011.52 1011.59 1011.62 1011.61 1011.58 1011.55 1011.53 1011.52 1011.53 1011.53 1011.53 1011.51 1011.47 1011.42 1011.38 1011.36 1011.37 1011.41 1011.48 1011.57 1011.66
1010.23 1011.29 1012.43 1013.48 1014.28 1014.71 1014.75 1014.44 1013.90 1013.28 1012.75 1012.40 1012.31 1012.45 1012.74 1013.08 1013.35 1013.47 1013.38 1013.11 1012.71 1012.27 1011.87 1011.56 1011.39 1011.35 1011.39 1011.48 1011.57 1011.63 1011.66 1011.65 1011.62 1011.60 1011.58 1011.58 1011.57 1011.56 1011.52 1011.46 1011.39 1011.31 1011.25 1011.22 1011.23 1011.27 1011.34 1011.43 1011.51
1010.80 1011.98 1013.13 1014.08 1014.68 1014.86 1014.65 1014.12 1013.42 1012.72 1012.17 1011.87 1011.84 1012.04 1012.39 1012.75 1013.02 1013.11 1013.01 1012.75 1012.38 1011.99 1011.66 1011.45 1011.36 1011.37 1011.46 1011.56 1011.65 1011.69 1011.69 1011.66 1011.62 1011.58 1011.56 1011.54 1011.52 1011.48 1011.41 1011.32 1011.23 1011.13 1011.07 1011.05 1011.08 1011.14 1011.23 1011.32 1011.41
1011.56 1012.79 1013.89 1014.68 1015.07 1015.01 1014.57 1013.86 1013.05 1012.31 1011.78 1011.53 1011.57 1011.83 1012.20 1012.55 1012.78 1012.84 1012.70 1012.43 1012.08 1011.75 1011.50 1011.37 1011.36 1011.44 1011.56 1011.67 1011.74 1011.75 1011.71 1011.64 1011.56 1011.49 1011.45 1011.41 1011.36 1011.30 1011.21 1011.11 1011.00 1010.91 1010.86 1010.87 1010.93 1011.03 1011.15 1011.27 1011.38
1012.41 1013.63 1014.61 1015.22 1015.39 1015.12 1014.49 1013.67 1012.81 1012.08 1011.61 1011.44 1011.55 1011.84 1012.21 1012.52 1012.70 1012.69 1012.50 1012.21 1011.88 1011.60 1011.43 1011.37 1011.44 1011.56 1011.70 1011.80 1011.83 1011.79 1011.69 1011.56 1011.44 1011.35 1011.27 1011.21 1011.15 1011.07 1010.97 1010.85 1010.74 1010.66 1010.64 1010.68 1010.79 1010.94 1011.11 1011.27 1011.40
1013.23 1014.36 1015.18 1015.60 1015.56 1015.12 1014.38 1013.50 1012.66 1012.01 1011.63 1011.56 1011.73 1012.05 1012.40 1012.66 1012.76 1012.68 1012.44 1012.12 1011.81 1011.57 1011.45 1011.46 1011.58 1011.73 1011.86 1011.93 1011.91 1011.80 1011.64 1011.46 1011.30 1011.17 1011.07 1011.00 1010.92 1010.84 1010.72 1010.60 1010.49 1010.43 1010.43 1010.51 1010.66 1010.86 1011.08 1011.28 1011.44
1013.87 1014.85 1015.48 1015.70 1015.49 1014.93 1014.14 1013.29 1012.52 1011.99 1011.74 1011.77 1012.01 1012.35 1012.68 1012.88 1012.91 1012.76 1012.48 1012.15 1011.85 1011.65 1011.58 1011.63 1011.77 1011.92 1012.03 1012.05 1011.97 1011.80 1011.58 1011.36 1011.16 1011.01 1010.91 1010.83 1010.75 1010.66 1010.54 1010.41 1010.29 1010.23 1010.24 1010.34 1010.52 1010.76 1011.02 1011.27 1011.46
1014.22 1015.00 1015.44 1015.47 1015.14 1014.52 1013.74 1012.96 1012.33 1011.94 1011.83 1011.97 1012.27 1012.63 1012.93 1013.09 1013.07 1012.87 1012.57 1012.24 1011.96 1011.80 1011.76 1011.84 1011.98 1012.12 1012.19 1012.15 1012.01 1011.79 1011.53 1011.27 1011.06 1010.91 1010.82 1010.75 1010.68 1010.58 1010.45 1010.31 1010.17 1010.09 1010.09 1010.18 1010.37 1010.63 1010.92 1011.19 1011.42
1014.21 1014.80 1015.04 1014.93 1014.51 1013.88 1013.17 1012.52 1012.03 1011.80 1011.82 1012.06 1012.41 1012.78 1013.07 1013.20 1013.14 1012.93 1012.64 1012.33 1012.09 1011.97 1011.97 1012.07 1012.20 1012.31 1012.33 1012.25 1012.06 1011.80 1011.51 1011.24 1011.04 1010.90 1010.83 1010.78 1010.72 1010.62 1010.48 1010.32 1010.15 1010.03 1009.99 1010.05 1010.22 1010.47 1010.76 1011.06 1011.30
1013.90 1014.30 1014.38 1014.17 1013.72 1013.12 1012.51 1011.99 1011.65 1011.56 1011.69 1012.00 1012.38 1012.75 1013.02 1013.13 1013.08 1012.88 1012.63 1012.37 1012.20 1012.12 1012.16 1012.26 1012.39 1012.47 1012.46 1012.34 1012.12 1011.83 1011.54 1011.28 1011.10 1010.99 1010.94 1010.91 1010.86 1010.77 1010.62 1010.42 1010.21 1010.04 1009.95 1009.96 1010.09 1010.31 1010.59 1010.88 1011.13
1013.41 1013.65 1013.61 1013.34 1012.89 1012.36 1011.86 1011.47 1011.26 1011.27 1011.47 1011.81 1012.19 1012.55 1012.80 1012.90 1012.86 1012.71 1012.52 1012.34 1012.23 1012.22 1012.29 1012.42 1012.54 1012.60 1012.57 1012.43 1012.20 1011.92 1011.64 1011.40 1011.24 1011.16 1011.13 1011.12 1011.08 1010.99 1010.82 1010.59 1010.35 1010.12 1009.97 1009.93 1010.00 1010.17 1010.41 1010.68 1010.94
1012.92 1013.04 1012.92 1012.63 1012.21 1011.76 1011.36 1011.08 1010.96 1011.03 1011.24 1011.56 1011.91 1012.22 1012.44 1012.55 1012.53 1012.45 1012.33 1012.24 1012.20 1012.25 1012.36 1012.51 1012.64 1012.70 1012.66 1012.53 1012.31 1012.05 1011.80 1011.59 1011.45 1011.39 1011.37 1011.36 1011.32 1011.22 1011.04 1010.80 1010.52 1010.26 1010.06 1009.96 1009.97 1010.08 1010.28 1010.53 1010.78
1012.60 1012.64 1012.48 1012.19 1011.82 1011.44 1011.12 1010.91 1010.84 1010.90 1011.08 1011.34 1011.61 1011.86 1012.04 1012.14 1012.16 1012.13 1012.09 1012.08 1012.12 1012.22 1012.37 1012.53 1012.67 1012.75 1012.73 1012.63 1012.44 1012.22 1012.00 1011.82 1011.70 1011.63 1011.60 1011.59 1011.53 1011.42 1011.24 1010.98 1010.70 1010.42 1010.19 1010.05 1010.01 1010.08 1010.23 1010.44 1010.66
1012.60 1012.58 1012.40 1012.11 1011.79 1011.47 1011.20 1011.02 1010.93 1010.95 1011.05 1011.21 1011.39 1011.56 1011.69 1011.78 1011.82 1011.84 1011.86 1011.91 1012.00 1012.14 1012.31 1012.49 1012.65 1012.75 1012.78 1012.72 1012.59 1012.42 1012.24 1012.08 1011.95 1011.87 1011.81 1011.75 1011.67 1011.55 1011.36 1011.12 1010.85 1010.59 1010.36 1010.20 1010.13 1010.16 1010.26 1010.43 1010.62
1012.93 1012.85 1012.65 1012.37 1012.08 1011.79 1011.54 1011.35 1011.23 1011.16 1011.16 1011.20 1011.27 1011.35 1011.43 1011.51 1011.57 1011.62 1011.69 1011.77 1011.89 1012.04 1012.22 1012.40 1012.58 1012.71 1012.79 1012.80 1012.74 1012.63 1012.49 1012.34 1012.20 1012.07 1011.96 1011.86 1011.74 1011.59 1011.41 1011.20 1010.97 1010.74 1010.54 1010.39 1010.31 1010.30 1010.37 1010.49 1010.65
1013.51 1013.37 1013.14 1012.86 1012.57 1012.30 1012.05 1011.83 1011.63 1011.47 1011.35 1011.28 1011.24 1011.24 1011.28 1011.34 1011.42 1011.50 1011.59 1011.68 1011.80 1011.94 1012.10 1012.28 1012.46 1012.63 1012.77 1012.85 1012.88 1012.84 1012.74 1012.60 1012.43 1012.25 1012.08 1011.91 1011.74 1011.58 1011.41 1011.23 1011.05 1010.87 1010.72 1010.59 1010.51 1010.49 1010.52 1010.60 1010.71
1014.18 1013.97 1013.71 1013.42 1013.14 1012.86 1012.59 1012.32 1012.05 1011.79 1011.56 1011.38 1011.26 1011.20 1011.21 1011.27 1011.36 1011.46 1011.56 1011.66 1011.75 1011.85 1011.98 1012.14 1012.32 1012.52 1012.72 1012.88 1012.99 1013.02 1012.97 1012.85 1012.66 1012.43 1012.18 1011.94 1011.73 1011.54 1011.37 1011.23 1011.11 1010.99 1010.89 1010.80 1010.73 1010.70 1010.70 1010.74 1010.80
1014.76 1014.49 1014.20 1013.90 1013.62 1013.35 1013.06 1012.74 1012.40 1012.05 1011.72 1011.44 1011.25 1011.16 1011.16 1011.24 1011.36 1011.49 1011.60 1011.68 1011.74 1011.80 1011.88 1012.01 1012.18 1012.41 1012.66 1012.89 1013.08 1013.19 1013.20 1013.09 1012.88 1012.61 1012.30 1012.00 1011.74 1011.52 1011.36 1011.26 1011.18 1011.12 1011.06 1011.01 1010.95 1010.90 1010.88 1010.88 1010.90
1015.09 1014.79 1014.49 1014.22 1013.97 1013.70 1013.40 1013.04 1012.63 1012.19 1011.78 1011.43 1011.19 1011.08 1011.09 1011.20 1011.36 1011.53 1011.66 1011.74 1011.78 1011.79 1011.82 1011.91 1012.06 1012.30 1012.59 1012.89 1013.16 1013.34 1013.40 1013.32 1013.11 1012.81 1012.47 1012.12 1011.81 1011.58 1011.42 1011.33 1011.29 1011.27 1011.25 1011.21 1011.16 1011.09 1011.04 1011.00 1011.00
1015.10 1014.81 1014.56 1014.36 1014.16 1013.94 1013.64 1013.25 1012.78 1012.26 1011.75 1011.33 1011.04 1010.92 1010.95 1011.10 1011.32 1011.54 1011.71 1011.81 1011.83 1011.82 1011.80 1011.85 1011.98 1012.21 1012.52 1012.88 1013.20 1013.45 1013.57 1013.53 1013.34 1013.04 1012.68 1012.30 1011.97 1011.72 1011.56 1011.48 1011.45 1011.45 1011.44 1011.41 1011.35 1011.27 1011.18 1011.12 1011.09
1014.80 1014.60 1014.46 1014.38 1014.30 1014.15 1013.87 1013.46 1012.92 1012.30 1011.70 1011.19 1010.84 1010.69 1010.73 1010.92 1011.20 1011.49 1011.72 1011.85 1011.89 1011.86 1011.82 1011.83 1011.93 1012.15 1012.47 1012.85 1013.22 1013.52 1013.69 1013.70 1013.55 1013.27 1012.91 1012.54 1012.20 1011.94 1011.78 1011.70 1011.67 1011.67 1011.66 1011.61 1011.53 1011.42 1011.31 1011.22 1011.18
1014.30 1014.26 1014.32 1014.43 1014.50 1014.44 1014.21 1013.77 1013.15 1012.41 1011.68 1011.05 1010.61 1010.41 1010.44 1010.66 1011.00 1011.35 1011.65 1011.84 1011.91 1011.90 1011.85 1011.84 1011.92 1012.11 1012.42 1012.80 1013.19 1013.53 1013.75 1013.81 1013.70 1013.46 1013.14 1012.79 1012.46 1012.21 1012.04 1011.96 1011.93 1011.91 1011.87 1011.80 1011.69 1011.56 1011.42 1011.32 1011.27
1013.77 1013.97 1014.28 1014.61 1014.86 1014.92 1014.72 1014.25 1013.53 1012.66 1011.77 1010.99 1010.42 1010.12 1010.11 1010.33 1010.70 1011.12 1011.49 1011.75 1011.88 1011.91 1011.87 1011.85 1011.91 1012.07 1012.36 1012.72 1013.11 1013.47 1013.72 1013.82 1013.77 1013.59 1013.31 1013.00 1012.70 1012.47 1012.31 1012.22 1012.17 1012.13 1012.08 1011.98 1011.84 1011.68 1011.53 1011.42 1011.37
1013.35 1013.82 1014.40 1014.98 1015.42 1015.60 1015.43 1014.91 1014.09 1013.06 1011.99 1011.02 1010.29 1009.87 1009.77 1009.96 1010.34 1010.80 1011.24 1011.57 1011.77 1011.85 1011.84 1011.83 1011.87 1012.01 1012.26 1012.60 1012.97 1013.33 1013.60 1013.74 1013.74 1013.61 1013.39 1013.13 1012.88 1012.67 1012.53 1012.44 1012.38 1012.32 1012.24 1012.12 1011.97 1011.79 1011.63 1011.52 1011.47
1013.14 1013.88 1014.73 1015.54 1016.14 1016.41 1016.26 1015.68 1014.74 1013.55 1012.29 1011.14 1010.23 1009.66 1009.45 1009.57 1009.93 1010.42 1010.90 1011.30 1011.56 1011.70 1011.74 1011.75 1011.79 1011.90 1012.12 1012.42 1012.77 1013.11 1013.39 1013.55 1013.60 1013.52 1013.36 1013.16 1012.96 1012.78 1012.66 1012.58 1012.52 1012.45 1012.36 1012.23 1012.07 1011.89 1011.73 1011.62 1011.58
1013.16 1014.13 1015.19 1016.16 1016.88 1017.21 1017.06 1016.42 1015.37 1014.04 1012.62 1011.29 1010.22 1009.51 1009.18 1009.22 1009.54 1010.01 1010.51 1010.95 1011.27 1011.46 1011.55 1011.58 1011.63 1011.73 1011.92 1012.19 1012.51 1012.83 1013.10 1013.29 1013.36 1013.34 1013.23 1013.08 1012.93 1012.79 1012.69 1012.63 1012.58 1012.52 1012.43 1012.31 1012.16 1011.99 1011.84 1011.74 1011.70
1013.37 1014.48 1015.66 1016.72 1017.48 1017.82 1017.65 1016.96 1015.83 1014.41 1012.88 1011.44 1010.24 1009.41 1008.98 1008.93 1009.18 1009.61 1010.11 1010.56 1010.91 1011.14 1011.27 1011.33 1011.39 1011.50 1011.67 1011.92 1012.21 1012.51 1012.78 1012.97 1013.08 1013.09 1013.03 1012.93 1012.81 1012.72 1012.64 1012.60 1012.57 1012.53 1012.47 1012.37 1012.24 1012.10 1011.97 1011.88 1011.85
1013.67 1014.81 1016.00 1017.04 1017.78 1018.09 1017.88 1017.16 1016.01 1014.56 1013.00 1011.52 1010.28 1009.38 1008.88 1008.75 1008.92 1009.29 1009.74 1010.17 1010.52 1010.77 1010.92 1011.01 1011.09 1011.20 1011.37 1011.61 1011.89 1012.18 1012.44 1012.65 1012.77 1012.81 1012.79 1012.73 1012.65 1012.59 1012.54 1012.52 1012.52 1012.51 1012.48 1012.41 1012.33 1012.22 1012.12 1012.05 1012.02
1013.95 1015.01 1016.08 1017.02 1017.67 1017.90 1017.66 1016.95 1015.83 1014.44 1012.95 1011.53 1010.33 1009.44 1008.90 1008.72 1008.81 1009.10 1009.47 1009.84 1010.15 1010.37 1010.52 1010.62 1010.72 1010.84 1011.03 1011.27 1011.55 1011.84 1012.11 1012.33 1012.47 1012.54 1012.56 1012.53 1012.48 1012.45 1012.43 1012.44 1012.45 1012.47 1012.48 1012.46 1012.42 1012.36 1012.30 1012.24 1012.22
1014.14 1015.01 1015.90 1016.65 1017.15 1017.30 1017.03 1016.36 1015.34 1014.10 1012.76 1011.49 1010.40 1009.58 1009.07 1008.85 1008.87 1009.06 1009.32 1009.59 1009.82 1009.99 1010.11 1010.20 1010.30 1010.44 1010.64 1010.89 1011.19 1011.49 1011.78 1012.02 1012.19 1012.30 1012.34 1012.35 1012.33 1012.32 1012.33 1012.36 1012.40 1012.45 1012.49 1012.51 1012.51 1012.50 1012.47 1012.44 1012.42
Thickness
5793 5790 5786 5772 5753 5740 5738 5749 5758 5762 5769 5780 5785 5780 5769 5762 5756 5749 5771 5779 5778 5775 5773 5771 5770 5768 5766 5765 5764 5763 5762 5762 5761 5761 5761 5760 5760 5760 5760 5759 5760 5760 5759 5759 5759 5759 5759 5760 5760
5792 5787 5776 5760 5741 5729 5738 5754 5758 5768 5779 5784 5783 5778 5769 5764 5770 5769 5772 5776 5776 5773 5771 5769 5767 5765 5764 5762 5761 5760 5759 5758 5758 5757 5757 5757 5756 5756 5756 5756 5756 5756 5757 5756 5756 5756 5756 5757 5758
5790 5785 5765 5750 5739 5733 5743 5757 5764 5778 5787 5785 5777 5775 5768 5764 5770 5771 5774 5775 5774 5771 5768 5766 5764 5762 5760 5759 5758 5757 5756 5755 5754 5753 5753 5753 5753 5753 5752 5752 5753 5753 5753 5753 5753 5753 5754 5754 5755
5782 5770 5758 5744 5739 5748 5756 5763 5771 5776 5782 5785 5777 5766 5768 5776 5776 5776 5776 5774 5771 5768 5766 5764 5762 5760 5758 5756 5754 5753 5752 5751 5750 5750 5749 5749 5749 5748 5748 5748 5749 5749 5749 5749 5750 5750 5751 5751 5752
5775 5758 5744 5737 5743 5754 5763 5770 5774 5773 5776 5777 5773 5759 5759 5774 5780 5778 5774 5772 5768 5765 5764 5762 5760 5757 5755 5754 5752 5750 5749 5748 5747 5746 5745 5745 5744 5744 5744 5744 5744 5745 5745 5746 5746 5747 5748 5748 5749
5758 5750 5734 5730 5742 5755 5765 5774 5774 5773 5773 5774 5770 5758 5757 5772 5774 5773 5773 5770 5768 5765 5762 5760 5757 5755 5753 5751 5750 5748 5746 5745 5743 5742 5742 5741 5740 5740 5740 5740 5740 5740 5741 5742 5742 5743 5744 5745 5746
5751 5741 5735 5737 5739 5748 5763 5776 5774 5772 5771 5773 5773 5755 5756 5765 5772 5773 5771 5768 5765 5763 5760 5757 5755 5753 5751 5749 5747 5746 5744 5742 5741 5740 5738 5738 5737 5737 5736 5736 5736 5737 5737 5738 5738 5739 5740 5742 5743
5757 5743 5738 5737 5739 5746 5766 5775 5780 5777 5775 5783 5778 5757 5752 5764 5772 5771 5768 5764 5762 5760 5758 5755 5753 5751 5749 5747 5745 5744 5742 5740 5738 5737 5736 5735 5734 5734 5733 5733 5733 5733 5733 5734 5735 5736 5737 5738 5739
5757 5735 5729 5738 5743 5751 5766 5769 5777 5787 5781 5779 5778 5772 5772 5773 5770 5764 5759 5757 5756 5756 5755 5754 5752 5749 5747 5745 5744 5742 5740 5737 5736 5734 5733 5732 5731 5730 5730 5729 5729 5729 5730 5730 5731 5732 5733 5734 5735
5745 5728 5737 5752 5757 5757 5764 5767 5772 5772 5767 5766 5768 5771 5773 5769 5764 5758 5753 5751 5751 5752 5753 5753 5751 5748 5745 5744 5742 5739 5737 5735 5733 5731 5730 5728 5727 5727 5726 5726 5725 5725 5725 5726 5727 5728 5729 5730 5731
5745 5738 5748 5756 5762 5764 5762 5766 5774 5765 5756 5761 5762 5763 5765 5763 5759 5756 5754 5753 5753 5753 5753 5752 5750 5748 5745 5742 5740 5737 5735 5733 5731 5729 5727 5725 5724 5723 5722 5721 5721 5720 5720 5720 5721 5722 5723 5724 5726
5742 5747 5753 5755 5761 5762 5762 5766 5766 5766 5766 5775 5774 5771 5765 5761 5758 5757 5755 5754 5754 5753 5752 5752 5750 5747 5744 5741 5739 5736 5733 5730 5728 5726 5724 5722 5720 5718 5717 5716 5716 5715 5715 5715 5715 5717 5718 5720 5721
5737 5742 5752 5757 5760 5763 5764 5763 5763 5764 5773 5776 5773 5769 5763 5761 5760 5760 5760 5757 5755 5752 5751 5750 5749 5746 5743 5740 5737 5734 5731 5728 5725 5723 5721 5719 5716 5713 5712 5711 5710 5710 5710 5709 5710 5711 5713 5715 5717
5737 5740 5745 5751 5755 5760 5758 5759 5760 5761 5770 5769 5767 5764 5763 5762 5761 5759 5757 5755 5754 5752 5750 5749 5747 5745 5742 5738 5734 5731 5729 5726 5723 5720 5718 5715 5713 5710 5708 5706 5705 5704 5704 5704 5704 5705 5707 5708 5711
5736 5729 5734 5743 5749 5754 5755 5746 5753 5764 5767 5764 5763 5762 5761 5761 5761 5760 5760 5758 5756 5753 5751 5749 5747 5744 5741 5737 5733 5729 5726 5723 5720 5717 5714 5712 5709 5706 5704 5701 5700 5699 5699 5699 5699 5700 5702 5703 5705
5724 5718 5714 5734 5745 5751 5744 5731 5753 5765 5763 5758 5759 5759 5758 5760 5761 5762 5762 5760 5757 5754 5751 5749 5747 5742 5739 5735 5731 5727 5724 5721 5717 5714 5711 5709 5706 5703 5700 5698 5696 5695 5695 5694 5694 5694 5695 5696 5698
5707 5702 5708 5724 5741 5743 5739 5734 5754 5763 5761 5757 5757 5756 5757 5758 5759 5761 5762 5760 5757 5754 5750 5747 5744 5740 5737 5733 5729 5725 5722 5718 5715 5712 5709 5706 5703 5700 5697 5694 5693 5692 5690 5690 5690 5689 5689 5690 5692
5697 5702 5709 5716 5735 5738 5735 5737 5750 5758 5758 5756 5755 5754 5755 5756 5758 5760 5761 5760 5756 5754 5751 5746 5742 5738 5735 5731 5727 5722 5719 5715 5713 5709 5706 5704 5701 5698 5695 5692 5690 5688 5686 5685 5685 5684 5685 5686 5687
5709 5708 5709 5721 5738 5736 5733 5737 5746 5755 5754 5753 5752 5752 5753 5756 5759 5759 5759 5757 5754 5751 5748 5744 5740 5736 5733 5727 5722 5718 5714 5712 5710 5707 5704 5702 5699 5696 5693 5690 5687 5685 5683 5681 5681 5680 5680 5681 5684
5710 5707 5709 5721 5736 5735 5731 5735 5747 5753 5754 5755 5754 5754 5754 5753 5753 5754 5755 5754 5751 5748 5746 5742 5739 5735 5732 5728 5723 5719 5714 5711 5708 5705 5703 5700 5698 5695 5692 5688 5685 5683 5680 5678 5678 5677 5676 5676 5679
5709 5708 5713 5717 5728 5734 5729 5725 5739 5751 5756 5758 5758 5758 5758 5756 5754 5752 5751 5750 5749 5746 5744 5742 5738 5735 5731 5728 5723 5718 5713 5708 5705 5702 5700 5698 5696 5694 5691 5687 5684 5681 5679 5676 5675 5674 5672 5671 5674
5705 5724 5726 5723 5714 5708 5720 5703 5727 5740 5746 5751 5754 5755 5756 5758 5756 5753 5751 5748 5748 5747 5745 5741 5737 5734 5730 5727 5722 5715 5709 5704 5702 5700 5698 5697 5695 5692 5690 5687 5684 5681 5678 5675 5674 5673 5671 5670 5669
5720 5733 5728 5724 5714 5706 5713 5704 5715 5735 5737 5746 5752 5755 5757 5758 5756 5753 5752 5750 5749 5747 5744 5740 5736 5733 5729 5726 5721 5715 5709 5705 5702 5700 5697 5695 5693 5691 5689 5686 5683 5680 5677 5675 5673 5672 5670 5669 5668
5734 5727 5720 5711 5702 5692 5709 5704 5710 5726 5739 5747 5753 5755 5755 5756 5755 5753 5752 5749 5747 5745 5742 5739 5735 5731 5728 5724 5720 5715 5710 5706 5702 5698 5695 5693 5691 5689 5688 5685 5682 5680 5677 5675 5673 5671 5670 5668 5668
5727 5706 5689 5686 5680 5688 5713 5709 5715 5741 5752 5755 5755 5754 5755 5755 5753 5750 5747 5745 5744 5742 5740 5737 5734 5729 5727 5723 5719 5715 5711 5707 5702 5699 5695 5692 5689 5688 5686 5685 5682 5679 5677 5675 5673 5671 5669 5668 5667
5722 5710 5690 5681 5680 5689 5708 5708 5725 5751 5758 5761 5760 5757 5755 5753 5752 5751 5749 5747 5745 5743 5740 5736 5732 5729 5726 5722 5719 5716 5712 5707 5703 5700 5697 5693 5690 5688 5687 5684 5682 5680 5678 5676 5673 5671 5669 5668 5667
5723 5714 5715 5697 5695 5687 5697 5715 5735 5751 5751 5753 5754 5753 5751 5752 5752 5751 5750 5748 5745 5743 5740 5737 5733 5729 5726 5723 5719 5715 5712 5708 5704 5701 5698 5695 5693 5690 5688 5685 5682 5680 5678 5675 5673 5670 5668 5667 5667
5738 5727 5706 5696 5684 5677 5691 5703 5710 5733 5740 5747 5749 5749 5751 5752 5752 5751 5750 5748 5747 5745 5742 5738 5735 5731 5727 5723 5719 5716 5712 5708 5705 5702 5698 5696 5694 5691 5688 5685 5682 5680 5677 5675 5672 5670 5668 5667 5666
5732 5727 5711 5694 5691 5679 5679 5697 5734 5739 5745 5747 5749 5752 5752 5752 5752 5751 5750 5749 5747 5744 5741 5737 5734 5730 5726 5723 5719 5716 5712 5708 5705 5701 5699 5696 5694 5691 5688 5686 5682 5679 5677 5674 5672 5670 5668 5666 5665
5740 5732 5716 5698 5695 5689 5682 5698 5747 5748 5751 5752 5752 5754 5755 5754 5753 5751 5750 5747 5744 5742 5740 5737 5734 5730 5727 5724 5720 5716 5712 5708 5704 5701 5699 5697 5694 5692 5689 5686 5683 5679 5677 5674 5672 5669 5668 5666 5664